EW9479 Weather Reports


time (UTC)temp
F
wind
direction
speed
knots
gust
knots
rain 1hr
in
rain 24hr
in
rain mn
in
humidity
%
barometer
mb
20260504204537 79 214 8.7 14.8 0.00 0.00 0.00 45 1012.0
20260504203044 79 214 10.4 16.5 0.00 0.00 0.00 46 1012.1
20260504201539 79 217 8.7 15.6 0.00 0.00 0.00 46 1012.4
20260504200038 79 192 9.6 17.4 0.00 0.00 0.00 46 1012.8
20260504194542 79 206 8.7 14.8 0.00 0.00 0.00 46 1013.0
20260504193044 78 188 11.3 18.2 0.00 0.00 0.00 46 1013.2
20260504191607 79 200 8.7 14.8 0.00 0.00 0.00 46 1013.4
20260504190040 78 217 9.6 18.2 0.00 0.00 0.00 47 1013.5
20260504184549 78 229 10.4 17.4 0.00 0.00 0.00 46 1013.7
20260504183038 78 207 7.8 20.0 0.00 0.00 0.00 48 1013.7
20260504181544 77 221 10.4 15.6 0.00 0.00 0.00 47 1013.9
20260504180043 77 190 10.4 17.4 0.00 0.00 0.00 47 1014.0
20260504174538 77 235 8.7 14.8 0.00 0.00 0.00 48 1014.2
20260504173038 77 209 7.0 13.9 0.00 0.00 0.00 51 1014.5
20260504171541 76 193 5.2 13.9 0.00 0.00 0.00 53 1014.7
20260504081542 58 203 4.3 8.7 0.00 0.00 0.00 69 1015.5
20260504044543 57 194 1.7 4.3 0.00 0.00 0.00 66 1016.9
20260504043044 57 195 1.7 2.6 0.00 0.00 0.00 66 1017.0
20260504041541 58 203 0.9 3.5 0.00 0.00 0.00 65 1017.0
20260504040041 58 193 1.7 3.5 0.00 0.00 0.00 64 1017.2
20260504034543 58 198 1.7 3.5 0.00 0.00 0.00 65 1017.3
20260504033055 58 201 1.7 2.6 0.00 0.00 0.00 65 1017.5
20260504031559 57 206 1.7 1.7 0.00 0.00 0.00 66 1017.7
20260504030059 57 179 0.0 0.9 0.00 0.00 0.00 67 1017.7
20260504024544 57 200 0.9 1.7 0.00 0.00 0.00 68 1017.5
20260504023038 56 212 0.0 0.0 0.00 0.00 0.00 68 1017.4
20260504021545 56 0 0.0 0.0 0.00 0.00 0.00 68 1017.3
20260504020046 56 0 0.0 0.0 0.00 0.00 0.00 68 1017.2
20260504014543 57 0 0.0 0.0 0.00 0.00 0.00 67 1017.1
20260504013041 58 0 0.0 0.0 0.00 0.00 0.00 64 1017.0
20260504011538 60 0 0.0 0.0 0.00 0.00 0.00 60 1017.1
20260504010040 63 0 0.0 0.0 0.00 0.00 0.00 57 1017.0
20260504004540 65 0 0.0 0.9 0.00 0.00 0.00 52 1017.0
20260504003046 68 200 0.0 2.6 0.00 0.00 0.00 48 1016.8
20260504001537 70 182 1.7 4.3 0.00 0.00 0.00 43 1016.9
20260504000047 71 211 3.5 7.0 0.00 0.00 0.00 42 1017.0
20260503234540 71 190 5.2 7.8 0.00 0.00 0.00 41 1017.2
20260503233040 71 195 5.2 8.7 0.00 0.00 0.00 40 1017.3
20260503231538 72 183 5.2 8.7 0.00 0.00 0.00 40 1017.3
20260503230045 72 205 4.3 9.6 0.00 0.00 0.00 39 1017.3
20260503224544 72 220 4.3 8.7 0.00 0.00 0.00 40 1017.5
20260503223041 73 226 5.2 7.8 0.00 0.00 0.00 37 1017.5
20260503221541 72 196 6.1 11.3 0.00 0.00 0.00 40 1017.9
20260503220038 73 207 2.6 7.0 0.00 0.00 0.00 40 1017.9
20260503214538 72 225 2.6 12.2 0.00 0.00 0.00 38 1018.1
20260503213037 73 285 3.5 12.2 0.00 0.00 0.00 38 1018.5
20260503211537 72 215 3.5 10.4 0.00 0.00 0.00 37 1018.7
20260503210040 72 285 4.3 11.3 0.00 0.00 0.00 37 1018.9